When you browse on this site, cookies collect data to enhance your experience and personalize the content and advertising you see.
Visit our Privacy Policy to learn more. By continuing to use the site, you agree to this use of cookies and data.
  • In Hungary
  • List of Countries
  • For 7 days
  • Water Temperature
  • Satellite Maps
  • Weather Map
  • News
  • Weather Widgets
  • user-avatar
    Login

    Hourly Weather Poti

    Today, 18 January, Friday

    Time Temperature Precipitation Wind Pressure Humidity
    00:00 +2°C° 0.2 mm 8 mps 767 mmHg 77%
    01:00 +2°C° 0.3 mm 8 mps 768 mmHg 78%
    02:00 +2°C° 0.3 mm 8 mps 768 mmHg 78%
    03:00 +2°C° 0 mm 10 mps 768 mmHg 80%
    04:00 +2°C° 0.3 mm 9 mps 768 mmHg 79%
    05:00 +4°C° 0.3 mm 8 mps 768 mmHg 79%
    06:00 +4°C° 0.3 mm 8 mps 769 mmHg 78%
    07:00 +4°C° 0.2 mm 7 mps 769 mmHg 77%
    08:00 +4°C° 0.2 mm 7 mps 769 mmHg 77%
    09:00 +4°C° 0.2 mm 7 mps 769 mmHg 76%
    10:00 +4°C° 0.1 mm 6 mps 769 mmHg 73%
    11:00 +6°C° 0.1 mm 5 mps 768 mmHg 70%
    12:00 +6°C° 0.1 mm 4 mps 768 mmHg 67%
    13:00 +7°C° 0 mm 4 mps 768 mmHg 67%
    14:00 +8°C° 0 mm 3 mps 767 mmHg 66%
    15:00 +8°C° 0 mm 2 mps 767 mmHg 65%
    16:00 +7°C° 0 mm 2 mps 768 mmHg 69%
    17:00 +7°C° 0 mm 3 mps 768 mmHg 72%
    18:00 +5°C° 0 mm 3 mps 768 mmHg 76%
    19:00 +5°C° 0 mm 3 mps 768 mmHg 75%
    20:00 +4°C° 0 mm 3 mps 768 mmHg 75%
    21:00 +4°C° 0 mm 4 mps 768 mmHg 74%
    22:00 +4°C° 0 mm 4 mps 768 mmHg 73%
    23:00 +4°C° 0 mm 4 mps 768 mmHg 71%

    Tomorrow, 19 January, Saturday

    Time Temperature Precipitation Wind Pressure Humidity
    00:00 +3°C° 0 mm 5 mps 768 mmHg 70%
    01:00 +3°C° 0 mm 5 mps 768 mmHg 69%
    02:00 +3°C° 0 mm 5 mps 768 mmHg 68%
    03:00 +3°C° 0 mm 5 mps 768 mmHg 67%
    04:00 +2°C° 0 mm 5 mps 768 mmHg 65%
    05:00 +2°C° 0 mm 5 mps 768 mmHg 64%
    06:00 +2°C° 0 mm 5 mps 767 mmHg 63%
    07:00 +4°C° 0 mm 4 mps 767 mmHg 61%
    08:00 +4°C° 0 mm 4 mps 767 mmHg 59%
    09:00 +4°C° 0 mm 4 mps 767 mmHg 58%
    10:00 +6°C° 0 mm 4 mps 767 mmHg 53%
    11:00 +8°C° 0 mm 3 mps 767 mmHg 48%
    12:00 +10°C° 0 mm 3 mps 766 mmHg 43%
    13:00 +10°C° 0 mm 2 mps 766 mmHg 42%
    14:00 +12°C° 0 mm 2 mps 766 mmHg 41%
    15:00 +12°C° 0 mm 2 mps 766 mmHg 41%
    16:00 +11°C° 0 mm 1 mps 766 mmHg 44%
    17:00 +10°C° 0 mm 1 mps 767 mmHg 47%
    18:00 +9°C° 0 mm 1 mps 767 mmHg 50%
    19:00 +9°C° 0 mm 1 mps 768 mmHg 52%
    20:00 +7°C° 0 mm 2 mps 768 mmHg 54%
    21:00 +7°C° 0 mm 2 mps 768 mmHg 55%
    22:00 +7°C° 0 mm 2 mps 768 mmHg 55%
    23:00 +7°C° 0 mm 3 mps 768 mmHg 55%

    Day after tomorrow, 20 January, Sunday

    Time Temperature Precipitation Wind Pressure Humidity
    00:00 +5°C° 0 mm 3 mps 768 mmHg 55%
    01:00 +5°C° 0 mm 3 mps 768 mmHg 55%
    02:00 +5°C° 0 mm 3 mps 768 mmHg 54%
    03:00 +5°C° 0 mm 3 mps 768 mmHg 53%
    04:00 +5°C° 0 mm 3 mps 768 mmHg 52%
    05:00 +5°C° 0 mm 3 mps 768 mmHg 52%
    06:00 +4°C° 0 mm 4 mps 768 mmHg 51%
    07:00 +5°C° 0 mm 4 mps 768 mmHg 51%
    08:00 +5°C° 0 mm 4 mps 769 mmHg 50%
    09:00 +5°C° 0 mm 4 mps 769 mmHg 49%
    10:00 +6°C° 0 mm 4 mps 768 mmHg 46%
    11:00 +7°C° 0 mm 4 mps 768 mmHg 42%
    12:00 +10°C° 0 mm 4 mps 768 mmHg 38%
    13:00 +10°C° 0 mm 3 mps 767 mmHg 39%
    14:00 +10°C° 0 mm 3 mps 767 mmHg 39%
    15:00 +11°C° 0 mm 3 mps 767 mmHg 40%
    16:00 +10°C° 0 mm 3 mps 767 mmHg 43%
    17:00 +9°C° 0 mm 3 mps 767 mmHg 47%
    18:00 +8°C° 0 mm 3 mps 767 mmHg 51%
    19:00 +6°C° 0 mm 4 mps 768 mmHg 53%
    20:00 +6°C° 0 mm 4 mps 768 mmHg 54%
    21:00 +6°C° 0 mm 5 mps 768 mmHg 56%
    22:00 +6°C° 0 mm 5 mps 768 mmHg 56%
    23:00 +5°C° 0 mm 5 mps 768 mmHg 56%

    21 January, Monday

    Time Temperature Precipitation Wind Pressure Humidity
    00:00 +5°C° 0 mm 5 mps 768 mmHg 56%
    01:00 +5°C° 0 mm 5 mps 768 mmHg 55%
    02:00 +5°C° 0 mm 5 mps 768 mmHg 55%
    03:00 +4°C° 0 mm 6 mps 767 mmHg 54%
    04:00 +4°C° 0 mm 6 mps 767 mmHg 53%
    05:00 +4°C° 0 mm 6 mps 767 mmHg 52%
    06:00 +4°C° 0 mm 6 mps 767 mmHg 51%
    07:00 +5°C° 0 mm 5 mps 766 mmHg 50%
    08:00 +5°C° 0 mm 5 mps 766 mmHg 49%
    09:00 +6°C° 0 mm 5 mps 766 mmHg 48%
    10:00 +7°C° 0 mm 5 mps 766 mmHg 44%
    11:00 +9°C° 0 mm 5 mps 765 mmHg 41%
    12:00 +10°C° 0 mm 5 mps 764 mmHg 37%
    13:00 +12°C° 0 mm 4 mps 764 mmHg 38%
    14:00 +12°C° 0 mm 4 mps 763 mmHg 38%
    15:00 +12°C° 0 mm 3 mps 763 mmHg 39%
    16:00 +11°C° 0 mm 3 mps 764 mmHg 43%
    17:00 +10°C° 0 mm 3 mps 764 mmHg 46%
    18:00 +9°C° 0 mm 3 mps 765 mmHg 50%
    19:00 +8°C° 0 mm 3 mps 765 mmHg 51%
    20:00 +8°C° 0 mm 3 mps 765 mmHg 53%
    21:00 +8°C° 0 mm 3 mps 766 mmHg 54%
    22:00 +7°C° 0 mm 3 mps 766 mmHg 54%
    23:00 +6°C° 0 mm 4 mps 766 mmHg 53%

    22 January, Tuesday

    Time Temperature Precipitation Wind Pressure Humidity
    00:00 +6°C° 0 mm 4 mps 766 mmHg 53%
    01:00 +6°C° 0 mm 4 mps 766 mmHg 52%
    02:00 +7°C° 0 mm 3 mps 766 mmHg 51%
    03:00 +7°C° 0 mm 3 mps 766 mmHg 51%
    04:00 +6°C° 0 mm 4 mps 766 mmHg 53%
    05:00 +6°C° 0 mm 4 mps 766 mmHg 54%
    06:00 +6°C° 0 mm 5 mps 766 mmHg 56%
    07:00 +6°C° 0.6 mm 5 mps 766 mmHg 59%
    08:00 +5°C° 0.6 mm 6 mps 766 mmHg 61%
    09:00 +5°C° 0.6 mm 6 mps 766 mmHg 64%
    10:00 +6°C° 1.1 mm 7 mps 766 mmHg 67%
    11:00 +6°C° 1.1 mm 7 mps 766 mmHg 70%
    12:00 +6°C° 1.1 mm 7 mps 765 mmHg 73%
    13:00 +6°C° 0.8 mm 7 mps 765 mmHg 78%
    14:00 +7°C° 0.8 mm 6 mps 765 mmHg 83%
    15:00 +6°C° 0.8 mm 5 mps 765 mmHg 88%
    16:00 +6°C° 0.2 mm 4 mps 765 mmHg 87%
    17:00 +6°C° 0.2 mm 4 mps 765 mmHg 86%
    18:00 +6°C° 0.2 mm 4 mps 766 mmHg 85%
    19:00 +7°C° 0 mm 3 mps 766 mmHg 85%
    20:00 +7°C° 0 mm 2 mps 766 mmHg 85%
    21:00 +7°C° 0 mm 2 mps 766 mmHg 85%
    22:00 +7°C° 0.1 mm 2 mps 766 mmHg 86%
    23:00 +7°C° 0.1 mm 1 mps 766 mmHg 86%

    23 January, Wednesday

    Time Temperature Precipitation Wind Pressure Humidity
    00:00 +7°C° 0.1 mm 1 mps 766 mmHg 87%
    01:00 +6°C° 0 mm 2 mps 765 mmHg 86%
    02:00 +5°C° 0 mm 3 mps 765 mmHg 84%
    03:00 +5°C° 0 mm 4 mps 765 mmHg 83%
    04:00 +5°C° 0 mm 5 mps 765 mmHg 80%
    05:00 +5°C° 0 mm 5 mps 765 mmHg 76%
    06:00 +5°C° 0 mm 5 mps 764 mmHg 73%
    07:00 +4°C° 0 mm 6 mps 765 mmHg 70%
    08:00 +4°C° 0 mm 6 mps 765 mmHg 68%
    09:00 +4°C° 0 mm 6 mps 765 mmHg 66%
    10:00 +7°C° 0 mm 6 mps 764 mmHg 62%
    11:00 +8°C° 0 mm 6 mps 764 mmHg 58%
    12:00 +9°C° 0 mm 6 mps 764 mmHg 54%
    13:00 +9°C° 0 mm 6 mps 763 mmHg 54%
    14:00 +9°C° 0 mm 6 mps 763 mmHg 54%
    15:00 +10°C° 0 mm 6 mps 762 mmHg 54%
    16:00 +9°C° 0 mm 6 mps 763 mmHg 57%
    17:00 +8°C° 0 mm 7 mps 763 mmHg 60%
    18:00 +6°C° 0 mm 7 mps 763 mmHg 62%
    19:00 +6°C° 0 mm 7 mps 764 mmHg 62%
    20:00 +6°C° 0 mm 7 mps 764 mmHg 61%
    21:00 +6°C° 0 mm 8 mps 764 mmHg 61%
    22:00 +5°C° 0 mm 8 mps 764 mmHg 59%
    23:00 +5°C° 0 mm 8 mps 764 mmHg 58%
    Show more